GFSCGP_700_spd_132.txt.gz
Wind_Speed
28 28 37 36 36 40 28 29 31 30 25 29 26 21 17 20 22 25 27 17 30 24 20 21 25 24 22 25 28 30 28 30 28 29 25 25 24 26 26 30 30 31 36 39
27 33 32 30 31 38 39 32 32 27 27 25 19 20 19 17 19 30 23 20 13 31 17 14 25 25 25 31 34 37 33 30 32 30 28 26 26 25 24 24 25 26 34 42
28 27 25 29 34 36 34 34 34 25 20 17 14 19 18 22 21 29 23 19 17 13 33 19 22 24 23 25 29 31 30 29 29 30 29 28 30 27 24 25 27 26 26 23
25 22 26 27 28 29 32 30 27 25 24 20 22 20 26 20 21 16 17 26 17 15 21 20 16 18 20 22 22 22 22 21 23 29 30 33 33 32 28 28 27 32 28 27
27 24 29 28 30 28 29 30 20 19 18 22 26 25 16 23 25 31 24 23 20 18 16 15 16 17 19 23 22 21 22 23 24 28 31 32 32 34 32 29 28 29 35 31
23 18 27 25 25 26 24 18 19 23 20 17 25 26 22 29 30 30 31 20 24 14 12 10 11 17 17 24 24 24 25 27 27 28 30 30 35 36 36 37 33 34 35 35
23 25 22 21 25 23 23 19 13 12 14 14 25 24 23 14 30 31 30 30 30 17 18 15 8 13 16 16 17 20 24 26 28 30 31 33 35 35 37 35 35 39 40 39
26 20 27 22 26 28 28 27 19 17 11 17 24 26 29 13 21 29 35 30 20 18 15 10 12 19 18 18 20 22 22 23 24 27 29 30 29 33 36 39 42 41 39 38
27 17 25 21 24 24 25 31 29 20 22 15 18 19 16 21 26 28 25 22 17 17 15 4 6 5 14 17 12 15 17 18 19 20 20 19 18 19 20 23 22 27 34 34
17 15 21 25 21 22 22 22 27 21 16 4 6 19 18 25 26 24 22 20 23 19 10 7 9 12 13 20 17 14 16 17 20 21 22 21 21 20 20 21 22 23 27 29
17 12 21 21 23 27 20 19 19 27 21 10 4 7 11 26 24 22 22 19 16 13 9 7 9 13 14 9 13 23 20 22 27 27 28 30 30 30 31 31 32 34 36 38
18 8 22 24 18 21 21 21 15 16 18 11 7 13 7 13 19 17 16 18 13 15 14 10 11 13 13 13 18 22 30 26 31 37 36 37 39 40 41 43 45 46 47 46
18 13 15 12 14 21 20 20 19 19 6 14 9 4 12 7 6 17 14 16 11 9 8 9 13 12 13 13 14 12 17 20 25 29 30 30 32 33 34 37 39 42 43 45
17 13 15 13 12 17 21 19 14 9 5 10 17 15 15 10 11 14 11 9 10 7 9 12 14 13 15 17 16 16 23 27 28 31 30 33 34 36 37 38 39 42 43 44
16 10 8 4 8 3 14 19 20 17 8 12 15 11 5 9 11 9 10 11 11 15 15 16 15 12 15 17 20 26 30 33 35 32 32 33 34 35 37 39 40 41 42 44
16 12 4 3 8 5 4 10 14 14 14 16 11 9 5 7 9 7 7 8 10 9 10 12 13 13 14 17 21 22 32 39 36 31 32 33 36 38 40 42 44 45 46 48
17 18 6 6 12 8 11 16 15 14 13 12 13 7 5 4 2 3 5 8 8 10 12 13 14 16 20 26 33 32 41 41 38 36 36 38 40 42 43 44 46 46 48 49
20 18 19 9 18 7 8 10 8 14 12 12 11 4 1 3 6 7 8 11 11 11 14 13 13 21 29 32 35 40 43 45 40 39 40 42 45 46 47 47 48 49 49 50
15 16 9 7 10 10 9 8 7 8 8 8 8 7 4 7 7 8 16 15 21 26 24 21 26 29 34 34 38 42 46 44 43 43 44 45 46 47 48 49 49 49 51 51
13 11 11 8 4 6 12 9 12 13 10 5 6 4 5 4 2 5 15 17 19 24 26 27 31 29 34 36 36 40 41 47 47 45 45 46 46 48 49 49 49 48 48 47
14 11 9 8 6 8 10 6 8 8 8 10 5 2 4 5 10 17 18 18 26 31 32 30 21 23 28 30 36 41 47 49 47 46 45 46 47 48 48 47 44 42 41 41
17 10 10 7 6 2 7 3 4 8 9 5 3 6 10 13 17 23 23 27 24 18 17 19 22 25 30 36 43 47 47 47 46 44 45 45 45 44 42 40 33 31 37 40
9 9 13 7 8 11 6 5 7 6 2 3 7 14 17 16 11 10 14 15 17 20 23 29 33 36 38 41 45 46 47 45 44 43 42 40 40 36 31 30 32 35 40 41
6 10 6 9 9 9 6 2 2 1 2 11 14 10 6 13 13 16 19 22 26 29 32 35 38 40 41 41 42 43 44 44 41 38 36 33 28 26 28 31 35 38 40 36
4 9 9 6 11 9 7 10 6 6 10 8 5 10 11 15 18 20 23 26 28 31 34 37 39 40 40 40 39 39 39 36 35 33 27 27 24 27 28 33 36 37 31 33
6 8 8 10 12 11 11 6 7 8 7 10 13 15 16 18 19 21 22 26 30 33 36 36 36 35 34 34 33 33 33 32 30 24 26 23 24 28 30 32 32 27 31 31

GFSCGP_700_spd_135.txt.gz
Wind_Speed
30 28 37 39 35 30 30 32 34 30 27 29 32 36 25 23 28 30 36 37 41 32 30 17 16 10 7 5 8 11 13 12 20 20 28 27 23 25 25 27 26 27 28 27
26 32 27 31 33 29 34 25 27 27 34 28 35 36 25 24 27 29 33 38 32 30 38 26 30 19 19 17 17 19 22 22 27 30 30 30 27 27 27 27 28 28 28 24
26 27 26 27 31 31 34 32 26 29 25 29 29 26 26 31 30 27 27 22 29 25 39 36 33 29 15 17 24 26 29 31 34 36 38 38 31 28 29 29 28 30 28 28
25 22 27 31 31 31 33 30 32 30 28 22 27 14 28 30 28 32 21 27 28 21 23 37 34 26 19 23 21 21 21 22 24 27 28 32 34 32 31 32 33 31 30 32
28 24 27 30 32 29 35 28 35 31 25 25 30 26 26 28 29 25 25 33 27 27 20 37 32 28 34 26 19 18 20 19 19 21 23 26 30 31 32 34 35 36 32 32
22 23 23 24 26 30 26 30 19 30 24 12 26 31 30 23 28 25 23 25 28 27 28 30 33 33 32 23 20 21 23 23 23 24 25 26 27 31 34 34 36 37 36 38
27 26 28 23 22 24 22 17 6 5 6 5 26 24 28 25 26 26 31 20 34 37 29 28 29 29 25 17 17 17 19 20 23 26 28 28 30 30 30 34 36 40 37 35
29 21 30 25 30 27 26 24 16 6 4 7 19 25 36 32 25 31 35 30 32 30 26 25 24 22 26 21 19 21 22 23 23 23 24 25 27 31 32 29 33 37 40 41
25 26 24 24 27 27 27 29 21 13 5 2 5 6 12 28 34 35 34 43 34 34 27 21 21 20 20 18 17 18 19 20 20 20 20 20 20 22 24 24 23 27 30 32
13 19 20 25 23 27 20 25 24 11 4 2 5 11 7 21 35 35 35 43 38 34 24 12 8 11 14 18 24 22 19 15 16 17 18 20 21 22 22 23 23 25 25 25
29 8 18 20 27 24 19 24 10 7 14 4 1 9 8 17 32 36 35 30 26 25 17 11 12 14 17 22 26 22 18 20 25 24 24 24 26 28 30 32 33 35 35 36
27 6 12 22 20 22 24 29 27 13 6 7 5 8 13 15 24 29 31 31 30 28 19 15 18 18 18 21 27 31 33 31 27 29 30 27 27 29 31 33 35 38 42 45
24 15 7 17 13 20 23 16 16 22 19 7 13 7 9 23 25 20 27 23 15 17 23 20 17 20 21 23 29 31 34 32 33 29 27 26 28 30 30 31 33 35 37 39
25 22 23 10 9 17 10 16 12 7 2 2 8 17 17 22 29 24 24 20 19 14 13 14 16 21 25 23 25 30 34 37 37 38 35 33 33 33 35 35 36 37 38 39
17 17 25 18 13 16 11 10 14 7 4 6 8 7 13 15 20 23 15 11 15 17 10 10 14 18 22 26 31 33 37 38 41 39 40 37 32 32 34 35 36 38 40 41
18 16 15 15 5 17 12 10 7 4 4 2 2 7 11 15 11 8 13 14 16 19 19 19 17 20 22 23 28 32 36 38 40 45 49 47 40 37 38 38 39 41 43 45
22 23 20 8 10 11 10 11 5 8 7 1 1 6 18 13 9 9 9 9 10 10 14 20 23 25 26 29 33 36 37 40 46 49 49 49 44 42 42 43 44 43 43 44
22 19 13 9 11 3 1 5 14 13 9 7 7 12 16 15 13 12 9 14 17 18 20 24 28 31 34 35 36 38 41 45 46 50 51 47 42 43 43 42 42 44 47 48
22 26 7 7 9 9 9 8 12 18 17 15 20 17 16 12 14 11 12 15 18 21 24 27 30 31 34 39 44 47 45 47 50 46 46 43 42 43 43 44 45 47 49 48
19 22 15 17 9 6 14 14 15 16 14 10 12 13 12 14 11 12 17 21 24 25 27 28 32 38 40 41 37 40 46 45 46 44 44 45 45 44 45 46 46 46 45 42
22 24 23 15 6 11 12 16 17 10 8 12 16 15 15 12 12 15 20 23 26 28 26 24 21 23 30 34 38 43 46 48 48 49 48 46 45 45 45 43 42 39 35 33
20 14 15 8 7 5 12 11 11 16 17 18 20 19 19 18 20 22 25 29 29 30 28 29 31 35 39 43 45 47 50 50 48 46 44 44 43 41 38 37 30 29 32 35
10 12 12 6 11 11 15 7 14 16 16 16 17 17 19 19 21 23 22 24 26 29 33 34 37 40 44 45 46 45 44 43 43 42 40 39 36 35 31 26 26 31 35 40
16 12 18 15 15 10 10 11 12 14 15 15 17 18 20 20 20 22 24 28 29 30 30 29 29 32 35 38 39 41 40 39 36 34 34 33 30 25 24 27 29 33 37 39
15 14 16 17 20 17 13 10 8 8 8 13 12 12 14 17 20 21 23 20 21 23 27 30 31 32 33 35 36 38 38 35 32 30 28 22 23 21 24 25 29 31 33 33
11 16 18 24 19 13 16 14 12 10 11 8 10 14 16 17 16 16 19 21 23 26 28 29 30 32 35 37 36 33 29 27 24 18 17 16 19 22 25 23 24 29 28 29

GFSCGP_700_spd_138.txt.gz
Wind_Speed
30 35 45 43 39 34 26 24 29 28 33 27 25 28 30 27 26 28 30 35 35 34 30 31 22 15 9 10 13 11 7 5 12 14 15 20 23 22 23 24 25 27 25 23
33 40 38 38 36 32 30 22 24 25 26 25 26 34 26 21 30 33 28 27 33 31 24 24 25 24 15 11 10 14 13 15 17 18 20 25 27 26 28 29 30 30 28 26
37 30 33 36 38 32 32 26 27 19 28 30 29 29 26 35 23 25 27 32 34 38 31 25 30 33 25 17 15 13 14 17 21 25 31 32 33 33 36 35 33 31 31 29
26 18 27 32 38 36 33 29 20 23 24 15 22 14 34 33 30 30 22 23 22 29 29 26 32 29 34 28 16 13 13 14 16 22 27 31 33 37 39 37 35 33 33 33
23 27 28 26 30 35 32 21 19 21 27 25 23 21 21 27 27 27 27 26 24 26 25 26 30 31 28 28 28 23 22 21 21 22 25 23 26 32 34 36 34 33 35 37
19 22 23 23 25 27 20 20 23 22 27 15 26 29 26 31 30 25 27 24 28 32 30 30 27 30 26 22 26 35 30 24 23 25 25 24 25 28 31 33 33 34 35 35
20 25 27 21 22 27 26 24 7 4 7 5 30 24 31 23 29 27 21 24 31 31 31 29 35 34 32 29 24 24 21 20 21 22 24 26 27 27 27 28 31 32 34 35
23 17 29 24 29 26 29 27 8 5 2 9 19 15 35 35 30 24 21 28 28 32 32 29 34 33 31 25 22 24 21 20 21 23 24 23 24 25 26 26 24 26 30 34
25 22 19 25 23 27 21 28 25 12 5 0 3 10 21 14 27 32 29 36 31 34 39 37 35 30 27 26 21 18 19 21 22 22 20 20 21 21 21 22 22 22 24 25
7 20 18 17 23 28 26 16 13 10 3 4 1 5 13 13 17 23 34 39 31 34 36 33 30 28 25 23 24 23 22 21 18 18 20 21 22 23 24 25 26 27 28 30
30 16 6 19 11 31 27 22 12 23 10 5 3 5 7 11 8 19 43 41 36 32 29 26 22 20 25 27 27 26 27 24 22 24 24 23 24 25 28 31 33 36 37 39
25 10 17 15 22 12 28 26 19 7 6 8 4 8 8 10 6 20 35 35 32 30 27 24 22 22 24 24 24 28 32 32 35 34 29 26 25 26 29 31 32 35 36 37
23 18 12 15 20 9 20 11 20 22 15 10 4 4 17 16 10 29 30 24 26 24 20 19 21 22 20 22 24 28 34 37 39 37 33 29 30 34 35 37 37 37 39 40
17 19 23 17 9 3 7 6 11 24 10 12 10 14 21 17 23 28 29 28 19 18 19 17 14 17 22 26 30 33 36 37 40 41 40 39 39 38 38 39 39 40 40 41
31 19 19 23 21 5 4 6 5 3 5 3 8 13 20 30 30 41 38 29 24 21 21 17 19 20 24 27 30 33 34 39 42 43 44 45 47 49 53 49 46 44 43 43
25 19 24 22 22 14 9 4 10 8 8 14 14 13 11 18 25 28 30 22 12 20 26 24 23 25 27 29 31 35 40 42 45 45 45 46 50 58 58 46 41 40 43 46
25 28 24 9 16 9 11 12 5 3 1 7 11 15 21 17 20 21 22 25 23 19 22 26 29 27 29 33 36 39 41 41 42 46 51 54 59 59 46 42 39 41 44 46
22 25 13 17 17 5 5 16 10 7 11 8 14 22 24 23 25 23 28 26 23 25 24 22 26 31 35 37 38 41 44 47 50 54 59 59 48 43 43 44 45 45 46 46
20 23 15 11 6 9 11 15 23 20 16 18 22 26 27 29 28 25 22 20 19 19 22 25 30 32 34 37 41 46 50 56 60 52 41 43 45 47 47 46 47 46 47 45
22 19 18 23 11 4 13 13 22 17 21 16 23 26 24 21 21 22 21 22 24 25 27 30 34 37 41 46 49 51 50 42 43 44 47 49 50 50 49 48 47 45 41 37
25 20 19 15 5 5 23 27 28 16 17 17 17 19 18 19 19 20 21 23 25 28 31 35 39 42 41 39 39 41 44 46 47 49 51 51 50 50 48 46 41 37 34 33
17 16 21 17 5 6 22 24 22 18 20 18 17 16 17 16 16 18 22 27 30 33 36 36 35 35 38 39 41 43 44 45 47 48 48 47 46 44 40 36 32 29 30 33
19 14 15 13 8 16 20 22 16 16 16 19 20 19 18 19 21 23 26 28 26 27 29 31 32 33 34 36 38 41 43 43 42 41 39 38 36 34 32 26 28 29 31 33
17 14 21 18 15 16 16 14 12 12 14 15 15 17 19 21 22 21 20 24 26 27 26 25 26 29 33 36 38 41 41 40 41 39 33 30 28 23 24 24 26 28 28 31
17 16 20 23 21 20 15 9 7 8 9 7 10 13 13 14 16 18 20 21 21 22 23 24 26 28 29 35 40 41 38 37 33 27 23 20 18 20 22 24 22 24 29 32
17 17 19 24 20 13 16 13 8 6 5 10 11 9 11 14 15 15 16 17 19 21 23 24 26 29 35 39 38 33 30 26 21 16 15 16 19 22 21 19 19 26 26 29

GFSCGP_700_spd_141.txt.gz
Wind_Speed
34 39 48 45 36 24 28 34 31 40 30 30 31 22 19 20 26 26 21 20 25 22 28 30 27 21 17 14 18 21 18 11 9 25 19 30 28 24 24 22 25 27 27 26
29 38 37 36 35 29 25 23 29 30 22 26 24 21 18 21 25 31 26 23 22 19 20 29 32 28 15 11 13 13 13 12 13 19 21 22 22 25 27 29 30 32 30 29
27 28 31 35 37 35 32 24 22 18 22 20 17 23 25 22 25 21 27 31 27 25 23 22 24 22 17 16 14 13 13 12 14 16 21 22 25 29 29 35 35 37 37 36
15 17 32 35 37 35 32 26 17 16 12 17 23 13 24 23 23 29 24 25 28 25 22 22 23 18 18 18 18 15 14 17 19 21 23 26 30 36 39 38 38 39 40 37
19 30 24 35 36 35 29 25 19 12 13 15 10 10 23 24 26 28 32 30 23 19 21 25 22 18 18 17 18 19 21 15 19 21 24 27 30 30 34 35 35 36 37 37
14 12 19 29 28 31 29 21 20 17 17 9 23 19 16 24 24 21 23 22 22 21 22 24 19 23 22 17 14 16 21 21 20 23 28 31 29 27 28 32 34 35 35 35
20 17 21 19 21 26 21 23 5 5 3 7 18 14 18 17 18 22 22 17 14 25 24 30 26 19 21 21 18 19 18 17 19 20 22 23 26 27 30 32 33 34 35 38
18 11 24 21 24 19 22 24 7 4 4 2 11 9 22 27 34 29 24 23 26 26 29 34 21 23 23 19 19 18 19 23 22 19 20 22 25 27 27 27 29 32 33 34
16 7 20 21 20 21 18 25 22 8 14 2 7 21 21 23 25 24 24 25 22 27 31 34 26 25 24 24 22 19 23 20 20 22 21 18 18 21 23 23 24 25 26 28
7 7 15 18 19 21 23 21 16 11 6 3 4 7 11 14 17 20 22 23 24 28 33 33 29 27 26 23 23 23 23 22 16 14 12 18 22 24 26 28 30 32 34 35
13 1 7 9 19 26 30 27 9 19 14 6 2 6 4 6 15 21 22 20 22 32 32 30 30 30 27 26 28 28 25 23 20 18 21 24 22 21 22 25 29 31 33 35
26 4 6 5 10 6 26 31 31 15 8 7 6 8 7 7 11 15 21 19 28 29 27 28 26 22 24 26 27 26 27 29 27 28 30 27 22 25 29 31 30 33 35 37
21 11 10 4 7 9 8 24 24 18 14 14 7 6 11 9 17 14 16 28 27 25 24 19 20 20 22 23 25 28 28 31 31 35 36 36 36 39 41 41 42 45 48 46
25 16 12 9 4 8 6 13 18 15 13 11 17 14 11 8 9 18 29 29 25 20 15 13 16 17 18 21 25 28 31 33 34 36 37 40 43 45 47 47 50 53 57 50
29 18 20 16 11 11 9 9 10 16 14 18 13 11 11 6 10 26 30 29 27 24 18 14 12 13 15 19 25 30 33 33 35 37 41 45 48 49 49 51 55 60 51 45
29 19 19 19 15 10 10 3 3 6 13 7 8 12 14 16 22 26 33 30 30 23 13 16 16 15 20 28 29 29 31 33 38 44 47 47 48 49 55 60 58 45 43 44
28 28 25 13 15 11 5 8 9 7 9 5 12 10 14 16 24 32 40 33 28 20 25 18 18 23 26 28 32 33 35 39 43 44 45 48 52 57 55 45 46 47 47 47
28 28 22 11 13 1 6 8 10 5 12 16 12 12 15 17 21 19 26 32 24 23 27 26 26 29 32 33 34 36 40 42 44 48 52 56 57 48 50 50 49 48 47 46
23 27 13 11 7 7 11 15 16 20 10 13 18 24 24 28 29 26 25 24 24 26 27 29 32 31 32 33 35 38 42 46 51 54 53 50 52 51 50 48 46 45 45 44
24 19 19 21 7 5 14 20 15 18 13 16 22 28 26 25 26 23 22 21 24 25 24 27 28 30 32 37 41 46 50 49 47 48 46 46 48 49 48 47 45 42 42 39
27 21 19 23 6 4 14 19 22 18 16 21 22 25 24 26 21 23 25 22 22 23 25 27 32 37 42 45 45 43 44 42 39 41 44 47 47 47 46 43 41 39 37 35
20 19 16 17 7 4 21 29 26 21 24 25 23 20 19 18 17 15 17 19 22 27 31 34 37 38 39 40 39 36 36 38 40 42 46 46 44 45 42 38 35 31 29 28
17 17 19 13 10 8 19 29 22 11 18 24 19 17 15 13 13 17 20 23 26 28 30 32 35 36 34 33 34 35 37 40 42 46 46 41 39 35 32 29 25 26 29 30
20 16 18 19 15 10 16 18 17 14 11 13 13 12 13 15 17 19 21 22 24 27 29 30 29 30 32 34 35 37 40 44 47 42 36 33 27 26 21 24 27 29 25 28
27 22 26 24 24 20 19 15 11 10 7 4 4 8 11 12 13 16 19 21 23 25 25 26 27 29 31 33 36 40 45 45 36 32 26 22 21 17 21 27 25 25 26 29
23 23 23 25 22 15 20 15 11 7 6 4 7 9 9 11 14 16 17 18 19 20 22 23 25 27 32 35 39 42 39 31 24 20 17 16 18 21 22 18 22 26 23 26

GFSCGP_700_spd_147.txt.gz
Wind_Speed
38 33 38 40 33 23 31 30 18 24 19 32 26 21 19 27 25 32 27 22 20 20 19 21 21 19 18 19 19 16 13 14 14 14 15 17 20 25 26 29 33 30 32 28
39 29 27 27 25 17 21 28 21 18 20 20 24 21 22 22 26 26 28 28 26 26 25 24 23 22 20 19 18 16 15 16 17 17 18 20 22 26 29 33 35 37 36 34
29 23 32 33 29 19 19 28 33 18 23 21 18 19 27 26 26 25 24 22 23 29 30 24 23 23 21 21 21 22 21 20 20 21 20 23 24 25 29 31 32 37 35 36
18 6 35 32 25 19 13 20 25 29 20 20 19 19 28 30 29 28 26 23 21 24 28 28 30 28 28 26 25 23 22 23 24 24 25 25 24 26 31 32 33 33 37 38
11 30 33 34 34 25 16 19 18 22 24 18 19 16 25 29 30 32 27 23 22 19 18 20 22 24 26 27 26 23 25 27 27 26 25 24 24 26 28 31 33 35 37 38
7 23 15 31 33 31 20 16 16 18 16 16 23 23 21 28 28 30 28 23 21 22 23 22 21 21 20 24 26 27 25 25 25 22 22 24 26 26 28 33 36 40 40 40
9 15 13 24 28 26 25 21 11 9 9 6 17 14 18 15 21 25 28 28 25 27 31 32 28 22 18 21 25 26 22 21 23 25 22 21 22 23 26 30 35 37 35 33
12 8 18 21 29 24 25 29 10 7 9 9 10 12 13 19 14 17 22 25 30 30 27 25 21 21 18 18 23 24 22 21 19 17 17 17 22 27 29 31 32 31 30 32
9 5 22 15 25 26 30 25 13 7 6 9 11 9 6 10 14 18 21 17 20 21 22 19 19 20 17 23 23 21 21 18 16 12 12 16 19 22 24 26 27 29 30 31
11 13 20 20 24 21 27 26 16 5 8 6 6 6 10 9 20 19 20 23 20 21 20 20 19 20 21 24 23 23 20 16 13 10 11 12 16 21 23 23 25 26 28 31
12 14 18 25 20 21 25 25 18 10 4 7 4 4 8 10 9 12 14 14 13 14 20 20 20 24 25 25 26 23 17 14 10 9 11 15 20 22 22 23 25 26 28 31
5 16 22 23 19 21 19 23 19 19 11 5 1 4 4 8 8 10 9 9 7 13 19 23 21 26 27 25 21 19 16 12 9 11 15 19 25 28 28 31 32 34 38 42
11 14 19 14 14 25 22 23 20 18 16 14 7 4 6 10 9 9 11 9 9 11 17 23 28 29 24 22 20 17 13 10 12 16 18 25 31 34 36 39 41 43 46 50
8 10 13 13 17 23 22 28 25 24 12 9 15 12 14 8 7 10 11 12 15 18 25 33 30 28 26 22 18 15 14 15 15 18 23 28 35 38 41 45 46 48 52 55
10 8 10 11 9 15 15 20 29 27 22 14 15 17 13 8 9 10 8 14 16 26 35 31 30 26 24 21 17 15 15 15 19 23 26 31 36 41 46 48 51 54 57 54
15 8 8 4 6 10 11 13 19 22 21 19 14 15 13 13 13 6 12 8 22 35 34 32 28 23 21 16 13 13 16 19 23 26 31 36 41 46 50 53 56 58 53 48
18 12 10 7 14 12 8 13 16 19 20 19 14 12 14 15 14 5 8 8 22 28 28 28 25 22 18 14 13 16 19 24 26 31 36 40 45 49 54 57 56 50 47 49
18 19 8 9 14 6 8 10 9 12 11 13 12 14 16 18 16 12 14 13 17 22 24 21 18 16 16 17 17 22 24 27 32 36 40 45 50 54 57 53 46 47 48 52
20 20 9 8 8 4 11 15 16 15 16 17 17 15 12 17 19 20 20 20 18 18 20 19 13 15 21 23 26 27 29 34 38 42 46 51 54 52 47 44 45 48 51 45
19 22 17 18 7 7 11 15 15 15 11 16 15 15 11 14 22 22 21 21 21 20 20 20 20 16 20 24 26 29 35 39 44 48 49 47 45 43 42 44 47 47 40 38
20 22 20 17 9 8 13 18 18 11 7 15 19 18 13 10 10 7 12 12 12 11 10 11 13 16 20 25 30 35 40 44 44 42 41 40 41 42 43 45 41 36 33 31
22 18 15 14 10 6 17 22 21 15 5 5 17 18 15 13 10 7 7 5 5 8 11 15 19 23 27 32 36 39 39 38 37 36 37 38 40 42 40 34 31 29 25 25
19 23 22 21 18 10 18 20 22 15 10 8 15 19 16 14 12 12 10 9 10 14 18 22 26 29 31 32 32 32 32 33 34 36 37 38 38 33 28 26 24 22 23 21
23 28 20 19 19 16 18 19 15 12 8 14 17 17 19 16 12 11 11 13 17 21 23 23 24 25 26 26 27 28 29 32 34 36 34 30 26 24 23 22 21 21 21 24
28 25 23 19 19 18 17 18 11 13 15 20 22 19 16 15 15 16 18 19 18 18 18 19 20 20 21 22 24 26 30 32 33 30 26 21 19 17 16 20 23 19 24 27
28 29 24 22 22 21 20 20 17 18 20 18 14 14 13 14 14 12 12 12 12 13 15 17 17 18 19 21 24 28 31 31 28 25 19 12 13 19 16 21 17 24 25 24

GFSCGP_700_spd_150.txt.gz
Wind_Speed
29 29 39 40 37 36 37 37 39 38 29 39 34 28 28 26 22 22 21 21 22 21 22 23 23 23 22 22 22 23 23 19 16 13 11 12 15 19 23 26 30 29 29 28
28 32 30 30 31 31 34 35 29 33 19 34 34 31 21 33 26 20 21 21 21 19 21 19 18 18 19 21 20 20 19 17 15 14 14 15 19 20 24 26 29 30 30 33
30 27 26 30 29 25 26 33 27 31 28 27 32 29 29 24 32 35 28 20 17 19 18 21 20 20 19 20 20 20 18 15 16 17 20 22 23 25 27 27 29 30 29 27
22 22 24 26 29 24 23 28 27 25 30 28 32 25 34 29 30 31 32 30 29 27 28 24 22 21 21 21 20 19 18 19 20 22 23 26 28 26 26 28 29 29 32 34
17 19 29 26 28 23 17 24 30 22 26 24 27 25 38 33 32 30 32 31 27 23 19 21 23 29 27 26 25 27 28 27 25 26 28 29 26 23 25 25 26 29 31 34
11 21 24 26 24 16 14 23 25 27 19 17 20 28 25 38 39 35 31 28 24 25 23 19 23 30 32 29 28 27 28 29 29 30 29 27 24 22 23 22 23 27 31 34
13 22 18 26 27 19 18 28 17 18 18 12 27 20 20 29 25 36 33 28 26 24 24 24 24 25 25 24 24 23 26 28 27 25 23 21 21 21 19 23 28 31 33 36
23 21 19 30 36 35 30 31 25 19 15 13 19 16 17 17 17 24 29 29 29 26 24 24 25 29 30 28 23 24 29 28 27 25 22 20 20 20 22 25 27 28 30 31
13 13 15 26 30 27 31 26 6 5 25 19 16 10 11 17 20 16 20 25 28 27 28 27 28 32 31 26 23 26 30 29 27 25 21 20 21 19 20 22 24 25 27 30
6 24 15 25 26 24 31 27 13 9 10 10 16 19 10 18 17 18 21 21 22 25 26 27 25 30 26 27 25 27 28 28 26 23 21 22 20 17 18 21 23 24 26 28
11 20 18 27 23 31 29 29 21 10 7 7 7 13 14 14 14 19 17 18 21 27 26 28 29 29 28 27 28 29 29 28 25 23 24 20 16 15 18 23 25 27 29 31
5 17 24 25 17 21 21 26 20 13 10 3 2 11 11 11 12 12 14 16 19 22 23 26 34 31 31 31 32 32 29 28 25 23 21 17 16 19 22 25 28 30 33 37
11 21 26 21 15 18 22 23 22 15 8 11 6 11 11 9 7 11 13 12 13 15 20 23 29 33 35 34 33 31 30 27 24 23 17 16 19 23 26 29 32 36 39 42
7 18 17 14 21 23 22 21 20 17 14 14 12 11 7 6 7 9 10 12 13 12 15 22 26 34 35 32 31 30 29 27 24 18 17 19 21 26 30 33 37 41 44 48
6 13 12 12 17 21 21 21 21 20 15 11 8 7 3 9 10 9 9 11 12 15 17 26 35 35 37 34 34 32 28 22 17 17 19 22 26 30 34 38 43 46 50 52
8 10 13 13 15 16 16 20 21 20 17 14 8 6 5 13 12 10 9 11 16 18 26 34 37 38 35 34 31 24 19 16 17 19 22 26 30 35 39 44 48 51 52 48
9 7 10 11 13 15 14 14 18 20 18 14 13 9 14 12 13 12 10 10 11 24 37 41 39 34 32 28 23 18 15 16 20 22 26 30 35 40 44 50 53 52 46 44
14 10 8 12 11 13 6 12 12 13 13 14 9 9 14 14 12 9 4 3 7 23 27 29 28 25 25 22 18 17 18 22 25 27 32 36 40 45 50 53 49 45 43 44
16 15 8 9 14 2 8 12 11 12 10 14 13 17 15 12 9 6 7 8 5 17 20 24 23 19 14 17 18 21 23 26 29 32 36 41 46 50 49 46 42 42 43 45
23 16 15 12 12 7 8 11 11 12 13 15 17 14 10 7 8 8 12 11 13 15 21 19 15 6 14 14 17 21 23 27 31 37 42 46 46 44 42 42 42 42 43 40
17 18 19 16 14 11 11 12 10 10 4 5 17 12 11 13 12 8 14 12 14 14 15 17 13 15 11 13 17 22 28 33 38 42 42 41 40 39 39 41 41 39 34 33
22 16 17 20 17 11 15 15 13 12 8 7 12 13 14 9 10 10 12 11 10 9 8 8 9 12 16 20 25 30 35 36 36 36 36 36 37 37 38 37 33 30 30 27
17 19 20 17 19 14 17 19 22 18 13 5 7 12 14 12 9 11 12 9 8 7 8 12 16 20 24 28 28 30 30 30 30 32 34 36 36 34 32 28 27 24 21 22
24 24 18 21 23 20 14 20 20 18 11 11 10 12 16 12 11 11 9 9 10 12 15 18 22 24 24 25 26 25 25 26 29 32 34 34 31 28 24 21 19 22 18 20
17 25 26 28 20 22 20 22 17 19 14 14 14 15 16 14 12 11 11 13 15 17 19 19 19 21 21 21 21 21 23 27 30 31 31 27 22 18 15 19 16 20 22 23
22 19 24 19 25 25 25 21 17 15 15 18 17 18 16 13 12 12 14 16 18 16 15 16 17 17 18 18 18 19 22 26 28 26 23 16 13 13 18 17 20 19 24 22